Home   Weather   Yakutsk   Past weeks

Flag for Russia Past Weather in Yakutsk, Russia — Yesterday and Last 2 Weeks

Now
73 °F

Sunny.


Feels Like: 76 °F
Forecast: 47 / 66 °F
Wind: 6 mph from Southeast

Location: Jakutsk

Current Time: Aug 31, 2016 at 5:07:43 PM

Latest Report: Aug 31, 2016 at 4:30 PM


Visibility: 10 mi

Pressure: 30.07 "Hg

Humidity: 29%

Dew Point: 39 °F

Location of YakutskLocation

Past Weather in Yakutsk — Graph

°F

Yakutsk Temperature Yesterday

Maximum temperature yesterday: 66 °F (at 4:30 PM)
Minimum temperature yesterday: 45 °F (at 5:00 AM)
Average temperature yesterday: 54 °F

High & Low Weather Summary for the Past Weeks

 TemperatureHumidityPressure
High77 °F (Aug 16, 5:00 PM)100% (Aug 17, 6:30 AM)30.24 "Hg (Aug 17, 6:30 AM)
Low32 °F (Aug 27, 2:00 AM)31% (Aug 20, 1:00 PM)29.39 "Hg (Aug 25, 7:00 PM)
Average52 °F71%29.78 "Hg
* Reported Aug 16 4:00 PM — Aug 31 4:00 PM, Yakutsk, Weather by CustomWeather, © 2016

Note: Actual official high and low records may vary slightly from our data, if they occured in-between our weather recording intervals... More about our weather records

Advertising

Yakutsk Weather History for the Previous 24 Hours

Scroll right to see more
 ConditionsComfort  
Time TempWeatherWind HumidityBarometerVisibility
4:00 PM
Wed, Aug 31
73 °FSunny.6 mph33%30.07 "Hg10 mi
3:30 PM75 °FSunny.8 mph31%30.07 "Hg10 mi
3:00 PM77 °FSunny.3 mph32%30.07 "Hg10 mi
2:30 PM75 °FSunny.3 mph39%30.07 "Hg10 mi
2:00 PM75 °FSunny.3 mph41%30.07 "Hg10 mi
1:30 PM72 °FSunny.3 mph47%30.09 "Hg10 mi
1:00 PM72 °FSunny.6 mph50%30.09 "Hg10 mi
12:30 PM70 °FSunny.6 mph50%30.09 "Hg10 mi
12:00 PM66 °FSunny.6 mph56%30.09 "Hg10 mi
11:30 AM64 °FSunny.3 mph60%30.12 "Hg10 mi
11:00 AM63 °FSunny.6 mph64%30.12 "Hg10 mi
10:30 AM61 °FSunny.6 mph63%30.12 "Hg10 mi
10:00 AM59 °FSunny.3 mph72%30.12 "Hg10 mi
9:30 AM57 °FSunny.3 mph72%30.12 "Hg10 mi
9:00 AM54 °FSunny.3 mph82%30.12 "Hg10 mi
8:30 AM54 °FSunny.3 mph77%30.12 "Hg10 mi
8:00 AM52 °FSunny.3 mph82%30.12 "Hg10 mi
7:30 AM50 °FSunny.3 mph88%30.12 "Hg10 mi
7:00 AM48 °FSunny.3 mph94%30.12 "Hg10 mi
6:30 AM46 °FSunny.3 mph93%30.12 "Hg10 mi
6:00 AM45 °FSunny.3 mph93%30.12 "Hg10 mi
5:30 AM43 °FSunny.3 mph100%30.12 "Hg10 mi
5:00 AM43 °FSunny.3 mph100%30.12 "Hg10 mi
4:30 AM45 °FSunny.3 mph93%30.12 "Hg10 mi
4:00 AM45 °FClear.3 mph93%30.12 "Hg10 mi
3:30 AM45 °FClear.3 mph93%30.12 "Hg10 mi
3:00 AM45 °FClear.3 mph93%30.12 "Hg10 mi
2:30 AM45 °FClear.3 mph93%30.12 "Hg10 mi
2:00 AM46 °FClear.3 mph87%30.12 "Hg10 mi
1:30 AM46 °FClear.3 mph93%30.12 "Hg10 mi
1:00 AM46 °FClear.3 mph93%30.12 "Hg10 mi
12:30 AM48 °FClear.3 mph87%30.12 "Hg10 mi
12:00 AM48 °FClear.3 mph87%30.12 "Hg10 mi
11:30 PM
Tue, Aug 30
48 °FClear.3 mph87%30.12 "Hg10 mi
11:00 PM50 °FClear.3 mph82%30.12 "Hg10 mi
10:30 PM50 °FClear.3 mph82%30.12 "Hg10 mi
10:00 PM50 °FClear.3 mph88%30.12 "Hg10 mi
9:30 PM52 °FClear.6 mph82%30.12 "Hg10 mi
9:00 PM54 °FClear.6 mph77%30.12 "Hg10 mi
8:30 PM55 °FClear.6 mph77%30.12 "Hg10 mi
8:00 PM55 °FClear.6 mph77%30.12 "Hg10 mi
7:30 PM57 °FClear.6 mph77%30.09 "Hg10 mi
7:00 PM59 °FClear.6 mph72%30.09 "Hg10 mi
6:30 PM63 °FSunny.6 mph64%30.09 "Hg10 mi
6:00 PM64 °FSunny.8 mph60%30.09 "Hg10 mi
5:30 PM66 °FSunny.6 mph52%30.09 "Hg10 mi
5:00 PM66 °FSunny.8 mph52%30.07 "Hg10 mi
Weather by CustomWeather, © 2016

See weather overviewHow to use our weather pages